User: anonymous   Login
Location: Étavigny
(49.1201°N, 2.9800°E)
Time: 23:12:14
(UTC+00:00)
Language:

NOAA 16 DEB - Orbit

View from above orbital plane
View from above orbital plane
View from above satellite
View from above satellite

Ground track
Ground track

The orbit data is extracted from the following two-line orbital elements,

1 41403U 00055KG  24052.30908187  .00008417  00000-0  32646-2 0  9994
2 41403  98.8852 178.3373 0026642 129.1659 231.1895 14.29998363416946
Epoch (UTC): 21 February 2024 07:25:04
Eccentricity: 0.0026642
inclination: 98.8852°
perigee height: 772 km
apogee height: 811 km
right ascension of ascending node: 178.3373°
argument of perigee: 129.1659°
revolutions per day: 14.29998363
mean anomaly at epoch: 231.1895°
orbit number at epoch: 41694

The dashed part of the orbit path shows where the satellite is in the earth's shadow,  

DLR